Location: ?ejkovice
(49.0137°N, 14.3821°E)
Time: 18:15:23
(UTC+00:00)

H-2A R/B - Pass Details

Date: 23 May 2024
Orbit: 553 x 572 km, 98.1° (Epoch: 13 June)

Event Time Altitude Azimuth Distance (km) Brightness Sun altitude
Rises 00:36:01 0° 18° (NNE) 2,757 8.6 -17.1°
Reaches altitude 10° 00:38:13 10° 23° (NNE) 1,854 7.3 -16.9°
Maximum altitude 00:42:08 52° 101° (E) 699 3.9 -16.7°
Enters shadow 00:44:07 26° 166° (SSE) 1,116 4.4 -16.5°
